Time,TemperatureF,DewpointF,PressureIn,WindDirection,WindDirectionDegrees,WindSpeedMPH,WindSpeedGustMPH,Humidity,HourlyPrecipIn,Conditions,Clouds,dailyrainin,SoftwareType,DateUTC
2013-11-15 00:00:00,45.0,24.4,29.20,WNW,295,6.0,6.0,44,0.00,,,0.00,Wunderground v.1.15,2013-11-15 05:00:00,
2013-11-15 00:05:00,45.0,24.4,29.21,WNW,286,7.0,7.0,44,0.00,,,0.00,Wunderground v.1.15,2013-11-15 05:05:00,
2013-11-15 00:10:00,44.9,24.8,29.20,WNW,296,6.0,9.0,45,0.00,,,0.00,Wunderground v.1.15,2013-11-15 05:10:00,
2013-11-15 00:15:00,44.8,24.7,29.21,WNW,285,5.0,9.0,45,0.00,,,0.00,Wunderground v.1.15,2013-11-15 05:15:00,
2013-11-15 00:20:00,44.7,24.6,29.21,West,277,6.0,6.0,45,0.00,,,0.00,Wunderground v.1.15,2013-11-15 05:20:00,
2013-11-15 00:30:00,44.7,24.6,29.21,WNW,285,6.0,6.0,45,0.00,,,0.00,Wunderground v.1.15,2013-11-15 05:30:00,
2013-11-15 00:35:00,44.7,24.6,29.21,NW,308,7.0,7.0,45,0.00,,,0.00,Wunderground v.1.15,2013-11-15 05:35:00,
2013-11-15 00:40:00,44.7,24.6,29.21,WNW,286,6.0,6.0,45,0.00,,,0.00,Wunderground v.1.15,2013-11-15 05:40:00,
2013-11-15 00:45:00,44.7,24.6,29.21,WNW,291,6.0,6.0,45,0.00,,,0.00,Wunderground v.1.15,2013-11-15 05:45:00,
2013-11-15 00:50:00,44.8,24.2,29.21,WNW,286,6.0,6.0,44,0.00,,,0.00,Wunderground v.1.15,2013-11-15 05:50:00,
2013-11-15 00:55:00,44.8,24.2,29.21,WNW,288,5.0,6.0,44,0.00,,,0.00,Wunderground v.1.15,2013-11-15 05:55:00,
2013-11-15 01:00:00,44.8,24.7,29.21,West,264,5.0,6.0,45,0.00,,,0.00,Wunderground v.1.15,2013-11-15 06:00:00,
2013-11-15 01:05:00,44.8,24.2,29.21,WNW,284,6.0,13.0,44,0.00,,,0.00,Wunderground v.1.15,2013-11-15 06:05:00,
2013-11-15 01:10:00,44.8,24.2,29.21,WNW,286,6.0,6.0,44,0.00,,,0.00,Wunderground v.1.15,2013-11-15 06:10:00,
2013-11-15 01:15:00,44.8,24.2,29.21,WNW,294,5.0,7.0,44,0.00,,,0.00,Wunderground v.1.15,2013-11-15 06:15:00,
2013-11-15 01:20:00,44.7,24.1,29.21,WNW,285,6.0,13.0,44,0.00,,,0.00,Wunderground v.1.15,2013-11-15 06:20:00,
2013-11-15 01:25:00,44.7,24.1,29.21,WNW,295,6.0,13.0,44,0.00,,,0.00,Wunderground v.1.15,2013-11-15 06:25:00,
2013-11-15 01:35:00,44.7,24.1,29.21,West,275,5.0,13.0,44,0.00,,,0.00,Wunderground v.1.15,2013-11-15 06:35:00,
2013-11-15 01:40:00,44.8,23.6,29.21,NW,310,6.0,6.0,43,0.00,,,0.00,Wunderground v.1.15,2013-11-15 06:40:00,
2013-11-15 01:45:00,44.8,24.2,29.21,WNW,287,6.0,9.0,44,0.00,,,0.00,Wunderground v.1.15,2013-11-15 06:45:00,
2013-11-15 01:50:00,44.7,24.1,29.22,WNW,303,6.0,6.0,44,0.00,,,0.00,Wunderground v.1.15,2013-11-15 06:50:00,
2013-11-15 01:55:00,44.6,24.0,29.22,NW,308,5.0,13.0,44,0.00,,,0.00,Wunderground v.1.15,2013-11-15 06:55:00,
2013-11-15 02:05:00,44.6,24.0,29.22,NNW,339,5.0,6.0,44,0.00,,,0.00,Wunderground v.1.15,2013-11-15 07:05:00,
2013-11-15 02:10:00,44.7,23.5,29.22,WNW,293,5.0,5.0,43,0.00,,,0.00,Wunderground v.1.15,2013-11-15 07:10:00,
2013-11-15 02:15:00,44.7,23.5,29.22,WNW,289,5.0,6.0,43,0.00,,,0.00,Wunderground v.1.15,2013-11-15 07:15:00,
2013-11-15 02:20:00,44.7,24.1,29.22,WNW,294,5.0,13.0,44,0.00,,,0.00,Wunderground v.1.15,2013-11-15 07:20:00,
2013-11-15 02:25:00,44.7,24.1,29.22,WNW,299,5.0,13.0,44,0.00,,,0.00,Wunderground v.1.15,2013-11-15 07:25:00,
2013-11-15 02:30:00,44.6,23.5,29.22,WNW,294,5.0,5.0,43,0.00,,,0.00,Wunderground v.1.15,2013-11-15 07:30:00,
2013-11-15 02:39:00,44.6,23.5,29.22,West,279,5.0,13.0,43,0.00,,,0.00,Wunderground v.1.15,2013-11-15 07:39:00,
2013-11-15 02:44:00,44.5,23.9,29.23,WNW,293,5.0,13.0,44,0.00,,,0.00,Wunderground v.1.15,2013-11-15 07:44:00,
2013-11-15 02:49:00,44.5,23.9,29.23,West,281,5.0,5.0,44,0.00,,,0.00,Wunderground v.1.15,2013-11-15 07:49:00,
2013-11-15 02:54:00,44.5,23.9,29.22,NW,317,5.0,6.0,44,0.00,,,0.00,Wunderground v.1.15,2013-11-15 07:54:00,
2013-11-15 02:59:00,44.5,23.9,29.22,WNW,292,5.0,5.0,44,0.00,,,0.00,Wunderground v.1.15,2013-11-15 07:59:00,
2013-11-15 03:09:00,44.4,23.8,29.22,WNW,290,5.0,5.0,44,0.00,,,0.00,Wunderground v.1.15,2013-11-15 08:09:00,
2013-11-15 03:14:00,44.3,24.3,29.22,WNW,296,5.0,13.0,45,0.00,,,0.00,Wunderground v.1.15,2013-11-15 08:14:00,
2013-11-15 03:19:00,44.2,23.6,29.22,WNW,292,4.0,13.0,44,0.00,,,0.00,Wunderground v.1.15,2013-11-15 08:19:00,
2013-11-15 03:24:00,44.2,24.2,29.23,WNW,300,4.0,13.0,45,0.00,,,0.00,Wunderground v.1.15,2013-11-15 08:24:00,
2013-11-15 03:29:00,44.1,24.1,29.22,NW,322,4.0,13.0,45,0.00,,,0.00,Wunderground v.1.15,2013-11-15 08:29:00,
2013-11-15 03:34:00,44.1,24.1,29.22,WNW,297,5.0,13.0,45,0.00,,,0.00,Wunderground v.1.15,2013-11-15 08:34:00,
2013-11-15 03:44:00,44.0,24.0,29.23,WNW,292,4.0,13.0,45,0.00,,,0.00,Wunderground v.1.15,2013-11-15 08:44:00,
2013-11-15 03:49:00,44.0,24.0,29.23,WNW,295,5.0,5.0,45,0.00,,,0.00,Wunderground v.1.15,2013-11-15 08:49:00,
2013-11-15 03:54:00,43.9,23.9,29.22,NW,308,5.0,13.0,45,0.00,,,0.00,Wunderground v.1.15,2013-11-15 08:54:00,
2013-11-15 03:59:00,43.8,23.8,29.22,West,264,5.0,5.0,45,0.00,,,0.00,Wunderground v.1.15,2013-11-15 08:59:00,
2013-11-15 04:04:00,43.7,23.7,29.22,WNW,298,5.0,13.0,45,0.00,,,0.00,Wunderground v.1.15,2013-11-15 09:04:00,
2013-11-15 04:10:00,43.7,23.7,29.22,WNW,302,5.0,5.0,45,0.00,,,0.00,Wunderground v.1.15,2013-11-15 09:10:00,
2013-11-15 04:15:00,43.7,23.7,29.22,NW,305,5.0,6.0,45,0.00,,,0.00,Wunderground v.1.15,2013-11-15 09:15:00,
2013-11-15 04:20:00,43.7,23.7,29.22,WNW,288,5.0,5.0,45,0.00,,,0.00,Wunderground v.1.15,2013-11-15 09:20:00,
2013-11-15 04:25:00,43.6,24.2,29.23,NW,313,5.0,13.0,46,0.00,,,0.00,Wunderground v.1.15,2013-11-15 09:25:00,
2013-11-15 04:30:00,43.5,24.1,29.23,WNW,292,4.0,13.0,46,0.00,,,0.00,Wunderground v.1.15,2013-11-15 09:30:00,
2013-11-15 04:35:00,43.4,24.0,29.23,WNW,301,5.0,13.0,46,0.00,,,0.00,Wunderground v.1.15,2013-11-15 09:35:00,
2013-11-15 04:45:00,43.3,24.4,29.23,WNW,300,4.0,13.0,47,0.00,,,0.00,Wunderground v.1.15,2013-11-15 09:45:00,
2013-11-15 04:50:00,43.3,23.9,29.23,WNW,294,4.0,4.0,46,0.00,,,0.00,Wunderground v.1.15,2013-11-15 09:50:00,
2013-11-15 04:55:00,43.3,24.4,29.23,WNW,298,5.0,5.0,47,0.00,,,0.00,Wunderground v.1.15,2013-11-15 09:55:00,
2013-11-15 05:00:00,43.2,24.3,29.23,NW,322,4.0,13.0,47,0.00,,,0.00,Wunderground v.1.15,2013-11-15 10:00:00,
2013-11-15 05:05:00,43.2,24.3,29.23,WNW,291,4.0,13.0,47,0.00,,,0.00,Wunderground v.1.15,2013-11-15 10:05:00,
2013-11-15 05:10:00,43.3,24.4,29.23,WNW,290,5.0,5.0,47,0.00,,,0.00,Wunderground v.1.15,2013-11-15 10:10:00,
2013-11-15 05:20:00,43.2,24.8,29.23,WNW,290,5.0,13.0,48,0.00,,,0.00,Wunderground v.1.15,2013-11-15 10:20:00,
2013-11-15 05:25:00,43.2,24.8,29.23,WNW,298,5.0,13.0,48,0.00,,,0.00,Wunderground v.1.15,2013-11-15 10:25:00,
2013-11-15 05:30:00,43.2,25.3,29.23,WNW,294,5.0,5.0,49,0.00,,,0.00,Wunderground v.1.15,2013-11-15 10:30:00,
2013-11-15 05:35:00,43.1,25.2,29.23,WNW,299,5.0,13.0,49,0.00,,,0.00,Wunderground v.1.15,2013-11-15 10:35:00,
2013-11-15 05:40:00,43.1,25.2,29.23,NW,305,5.0,5.0,49,0.00,,,0.00,Wunderground v.1.15,2013-11-15 10:40:00,
2013-11-15 05:49:00,43.1,25.2,29.22,WNW,290,5.0,5.0,49,0.00,,,0.00,Wunderground v.1.15,2013-11-15 10:49:00,
2013-11-15 05:54:00,43.1,25.2,29.22,WNW,291,4.0,6.0,49,0.00,,,0.00,Wunderground v.1.15,2013-11-15 10:54:00,
2013-11-15 05:59:00,43.1,25.2,29.22,WNW,292,4.0,4.0,49,0.00,,,0.00,Wunderground v.1.15,2013-11-15 10:59:00,
2013-11-15 06:04:00,43.2,25.3,29.23,WNW,298,5.0,5.0,49,0.00,,,0.00,Wunderground v.1.15,2013-11-15 11:04:00,
2013-11-15 06:09:00,43.3,25.4,29.23,West,279,5.0,5.0,49,0.00,,,0.00,Wunderground v.1.15,2013-11-15 11:09:00,
2013-11-15 06:14:00,43.3,25.4,29.23,WNW,285,5.0,13.0,49,0.00,,,0.00,Wunderground v.1.15,2013-11-15 11:14:00,
2013-11-15 06:24:00,43.3,25.9,29.23,WNW,290,4.0,8.0,50,0.00,,,0.00,Wunderground v.1.15,2013-11-15 11:24:00,
2013-11-15 06:29:00,43.3,25.4,29.24,WNW,301,4.0,13.0,49,0.00,,,0.00,Wunderground v.1.15,2013-11-15 11:29:00,
2013-11-15 06:34:00,43.3,25.9,29.24,WNW,293,4.0,13.0,50,0.00,,,0.00,Wunderground v.1.15,2013-11-15 11:34:00,
2013-11-15 06:39:00,43.3,25.4,29.24,WNW,296,4.0,13.0,49,0.00,,,0.00,Wunderground v.1.15,2013-11-15 11:39:00,
2013-11-15 06:44:00,43.4,26.0,29.24,WNW,299,4.0,13.0,50,0.00,,,0.00,Wunderground v.1.15,2013-11-15 11:44:00,
2013-11-15 06:54:00,43.4,26.0,29.24,WNW,298,4.0,13.0,50,0.00,,,0.00,Wunderground v.1.15,2013-11-15 11:54:00,
2013-11-15 06:59:00,43.4,26.0,29.25,WNW,297,4.0,4.0,50,0.00,,,0.00,Wunderground v.1.15,2013-11-15 11:59:00,
2013-11-15 07:04:00,43.4,26.0,29.25,WNW,296,5.0,5.0,50,0.00,,,0.00,Wunderground v.1.15,2013-11-15 12:04:00,
2013-11-15 07:09:00,43.4,26.0,29.25,West,280,5.0,13.0,50,0.00,,,0.00,Wunderground v.1.15,2013-11-15 12:09:00,
2013-11-15 07:14:00,43.4,26.5,29.25,WNW,294,5.0,13.0,51,0.00,,,0.00,Wunderground v.1.15,2013-11-15 12:14:00,
2013-11-15 07:19:00,43.4,26.0,29.25,WNW,302,5.0,13.0,50,0.00,,,0.00,Wunderground v.1.15,2013-11-15 12:19:00,
2013-11-15 07:29:00,43.4,26.0,29.25,WNW,286,5.0,13.0,50,0.00,,,0.00,Wunderground v.1.15,2013-11-15 12:29:00,
2013-11-15 07:34:00,43.4,26.5,29.25,WNW,295,5.0,13.0,51,0.00,,,0.00,Wunderground v.1.15,2013-11-15 12:34:00,
2013-11-15 07:39:00,43.4,26.5,29.25,WNW,292,5.0,5.0,51,0.00,,,0.00,Wunderground v.1.15,2013-11-15 12:39:00,
2013-11-15 07:44:00,43.5,26.6,29.26,WNW,295,4.0,13.0,51,0.00,,,0.00,Wunderground v.1.15,2013-11-15 12:44:00,
2013-11-15 07:49:00,43.5,26.6,29.26,WNW,302,4.0,13.0,51,0.00,,,0.00,Wunderground v.1.15,2013-11-15 12:49:00,
2013-11-15 07:55:00,43.6,26.6,29.26,WNW,292,5.0,13.0,51,0.00,,,0.00,Wunderground v.1.15,2013-11-15 12:55:00,
2013-11-15 08:00:00,43.8,27.3,29.27,WNW,294,4.0,4.0,52,0.00,,,0.00,Wunderground v.1.15,2013-11-15 13:00:00,
2013-11-15 08:05:00,43.8,26.8,29.27,WNW,296,4.0,13.0,51,0.00,,,0.00,Wunderground v.1.15,2013-11-15 13:05:00,
2013-11-15 08:10:00,44.0,27.0,29.27,WNW,299,5.0,13.0,51,0.00,,,0.00,Wunderground v.1.15,2013-11-15 13:10:00,
2013-11-15 08:15:00,44.2,27.2,29.27,WNW,297,5.0,13.0,51,0.00,,,0.00,Wunderground v.1.15,2013-11-15 13:15:00,
2013-11-15 08:20:00,44.3,27.3,29.27,WNW,300,5.0,5.0,51,0.00,,,0.00,Wunderground v.1.15,2013-11-15 13:20:00,
2013-11-15 08:30:00,44.5,27.5,29.27,WNW,301,5.0,5.0,51,0.00,,,0.00,Wunderground v.1.15,2013-11-15 13:30:00,
2013-11-15 08:35:00,44.6,27.6,29.27,West,277,6.0,6.0,51,0.00,,,0.00,Wunderground v.1.15,2013-11-15 13:35:00,
2013-11-15 08:40:00,44.7,27.2,29.27,WNW,284,6.0,6.0,50,0.00,,,0.00,Wunderground v.1.15,2013-11-15 13:40:00,
2013-11-15 08:45:00,44.6,27.6,29.27,West,277,5.0,13.0,51,0.00,,,0.00,Wunderground v.1.15,2013-11-15 13:45:00,
2013-11-15 08:50:00,44.6,27.6,29.27,WNW,296,5.0,13.0,51,0.00,,,0.00,Wunderground v.1.15,2013-11-15 13:50:00,
2013-11-15 08:55:00,44.8,28.2,29.26,WNW,298,5.0,13.0,52,0.00,,,0.00,Wunderground v.1.15,2013-11-15 13:55:00,
2013-11-15 09:05:00,44.7,27.7,29.26,West,259,4.0,13.0,51,0.00,,,0.00,Wunderground v.1.15,2013-11-15 14:05:00,
2013-11-15 09:10:00,44.7,27.7,29.26,WNW,291,5.0,13.0,51,0.00,,,0.00,Wunderground v.1.15,2013-11-15 14:10:00,
2013-11-15 09:15:00,44.8,28.2,29.26,NW,305,5.0,13.0,52,0.00,,,0.00,Wunderground v.1.15,2013-11-15 14:15:00,
2013-11-15 09:20:00,44.9,27.8,29.26,West,263,4.0,13.0,51,0.00,,,0.00,Wunderground v.1.15,2013-11-15 14:20:00,
2013-11-15 09:25:00,45.0,28.4,29.26,WNW,294,4.0,13.0,52,0.00,,,0.00,Wunderground v.1.15,2013-11-15 14:25:00,
2013-11-15 09:34:00,46.0,28.9,29.27,WNW,290,4.0,13.0,51,0.00,,,0.00,Wunderground v.1.15,2013-11-15 14:34:00,
2013-11-15 09:39:00,46.5,28.8,29.26,NW,307,3.0,13.0,50,0.00,,,0.00,Wunderground v.1.15,2013-11-15 14:39:00,
2013-11-15 09:44:00,47.2,29.0,29.26,NW,323,4.0,13.0,49,0.00,,,0.00,Wunderground v.1.15,2013-11-15 14:44:00,
2013-11-15 09:49:00,48.2,29.9,29.25,WNW,286,3.0,3.0,49,0.00,,,0.00,Wunderground v.1.15,2013-11-15 14:49:00,
2013-11-15 09:54:00,49.2,30.3,29.25,WSW,253,2.0,9.0,48,0.00,,,0.00,Wunderground v.1.15,2013-11-15 14:54:00,
2013-11-15 09:59:00,49.8,30.4,29.25,WNW,296,3.0,3.0,47,0.00,,,0.00,Wunderground v.1.15,2013-11-15 14:59:00,
2013-11-15 10:09:00,50.8,30.7,29.25,WNW,295,3.0,3.0,46,0.00,,,0.00,Wunderground v.1.15,2013-11-15 15:09:00,
2013-11-15 10:14:00,50.6,30.6,29.25,WNW,288,3.0,5.0,46,0.00,,,0.00,Wunderground v.1.15,2013-11-15 15:14:00,
2013-11-15 10:19:00,50.2,30.7,29.25,WNW,303,3.0,13.0,47,0.00,,,0.00,Wunderground v.1.15,2013-11-15 15:19:00,
2013-11-15 10:24:00,50.3,30.8,29.25,WNW,293,4.0,13.0,47,0.00,,,0.00,Wunderground v.1.15,2013-11-15 15:24:00,
2013-11-15 10:29:00,50.5,31.0,29.26,NNW,335,3.0,13.0,47,0.00,,,0.00,Wunderground v.1.15,2013-11-15 15:29:00,
2013-11-15 10:39:00,51.2,31.1,29.25,WNW,289,3.0,3.0,46,0.00,,,0.00,Wunderground v.1.15,2013-11-15 15:39:00,
2013-11-15 10:44:00,51.7,31.6,29.25,WNW,285,3.0,5.0,46,0.00,,,0.00,Wunderground v.1.15,2013-11-15 15:44:00,
2013-11-15 10:49:00,51.9,31.2,29.25,WNW,290,3.0,13.0,45,0.00,,,0.00,Wunderground v.1.15,2013-11-15 15:49:00,
2013-11-15 10:54:00,51.7,31.0,29.25,North,360,4.0,13.0,45,0.00,,,0.00,Wunderground v.1.15,2013-11-15 15:54:00,
2013-11-15 10:59:00,51.7,31.0,29.26,WNW,290,4.0,13.0,45,0.00,,,0.00,Wunderground v.1.15,2013-11-15 15:59:00,
2013-11-15 11:04:00,51.7,31.6,29.25,WNW,294,5.0,13.0,46,0.00,,,0.00,Wunderground v.1.15,2013-11-15 16:04:00,
2013-11-15 11:10:00,51.7,31.0,29.25,WNW,290,7.0,7.0,45,0.00,,,0.00,Wunderground v.1.15,2013-11-15 16:10:00,
2013-11-15 11:15:00,51.7,31.0,29.25,WNW,284,6.0,13.0,45,0.00,,,0.00,Wunderground v.1.15,2013-11-15 16:15:00,
2013-11-15 11:20:00,51.5,31.4,29.25,WNW,293,5.0,13.0,46,0.00,,,0.00,Wunderground v.1.15,2013-11-15 16:20:00,
2013-11-15 11:25:00,51.1,30.5,29.25,WNW,298,4.0,13.0,45,0.00,,,0.00,Wunderground v.1.15,2013-11-15 16:25:00,
2013-11-15 11:30:00,51.3,31.7,29.25,NW,306,3.0,3.0,47,0.00,,,0.00,Wunderground v.1.15,2013-11-15 16:30:00,
2013-11-15 11:35:00,51.8,31.7,29.25,West,277,2.0,13.0,46,0.00,,,0.00,Wunderground v.1.15,2013-11-15 16:35:00,
2013-11-15 11:45:00,52.6,31.8,29.24,WNW,288,2.0,4.0,45,0.00,,,0.00,Wunderground v.1.15,2013-11-15 16:45:00,
2013-11-15 11:50:00,52.1,30.8,29.24,NW,306,3.0,13.0,44,0.00,,,0.00,Wunderground v.1.15,2013-11-15 16:50:00,
2013-11-15 11:55:00,51.6,31.5,29.24,West,279,4.0,13.0,46,0.00,,,0.00,Wunderground v.1.15,2013-11-15 16:55:00,
2013-11-15 12:00:00,51.3,31.2,29.24,West,269,5.0,5.0,46,0.00,,,0.00,Wunderground v.1.15,2013-11-15 17:00:00,
2013-11-15 12:05:00,51.4,31.8,29.24,WNW,297,4.0,13.0,47,0.00,,,0.00,Wunderground v.1.15,2013-11-15 17:05:00,
2013-11-15 12:15:00,51.8,31.7,29.24,NW,307,3.0,13.0,46,0.00,,,0.00,Wunderground v.1.15,2013-11-15 17:15:00,
2013-11-15 12:20:00,52.2,32.0,29.23,WNW,297,3.0,3.0,46,0.00,,,0.00,Wunderground v.1.15,2013-11-15 17:20:00,
2013-11-15 12:25:00,52.6,32.4,29.23,NW,306,3.0,13.0,46,0.00,,,0.00,Wunderground v.1.15,2013-11-15 17:25:00,
2013-11-15 12:30:00,52.8,32.0,29.23,WNW,300,2.0,13.0,45,0.00,,,0.00,Wunderground v.1.15,2013-11-15 17:30:00,
2013-11-15 12:35:00,52.6,31.8,29.23,NW,322,3.0,13.0,45,0.00,,,0.00,Wunderground v.1.15,2013-11-15 17:35:00,
2013-11-15 12:40:00,52.7,31.9,29.23,WNW,300,3.0,3.0,45,0.00,,,0.00,Wunderground v.1.15,2013-11-15 17:40:00,
2013-11-15 12:49:00,52.9,32.1,29.23,WNW,288,2.0,13.0,45,0.00,,,0.00,Wunderground v.1.15,2013-11-15 17:49:00,
2013-11-15 12:54:00,52.8,32.0,29.23,WNW,302,2.0,13.0,45,0.00,,,0.00,Wunderground v.1.15,2013-11-15 17:54:00,
2013-11-15 12:59:00,52.5,31.8,29.22,WNW,292,2.0,13.0,45,0.00,,,0.00,Wunderground v.1.15,2013-11-15 17:59:00,
2013-11-15 13:04:00,52.1,31.9,29.22,WNW,290,2.0,13.0,46,0.00,,,0.00,Wunderground v.1.15,2013-11-15 18:04:00,
2013-11-15 13:09:00,52.0,32.4,29.23,WNW,302,2.0,13.0,47,0.00,,,0.00,Wunderground v.1.15,2013-11-15 18:09:00,
2013-11-15 13:19:00,51.7,32.1,29.22,NW,324,2.0,2.0,47,0.00,,,0.00,Wunderground v.1.15,2013-11-15 18:19:00,
2013-11-15 13:24:00,51.5,31.9,29.22,WNW,303,1.0,13.0,47,0.00,,,0.00,Wunderground v.1.15,2013-11-15 18:24:00,
2013-11-15 13:29:00,51.7,31.6,29.22,WNW,295,1.0,1.0,46,0.00,,,0.00,Wunderground v.1.15,2013-11-15 18:29:00,
2013-11-15 13:34:00,51.8,31.7,29.22,WNW,287,2.0,3.0,46,0.00,,,0.00,Wunderground v.1.15,2013-11-15 18:34:00,
2013-11-15 13:39:00,51.8,31.7,29.22,NW,316,3.0,3.0,46,0.00,,,0.00,Wunderground v.1.15,2013-11-15 18:39:00,
2013-11-15 13:44:00,51.5,30.8,29.22,NW,316,3.0,4.0,45,0.00,,,0.00,Wunderground v.1.15,2013-11-15 18:44:00,
2013-11-15 13:54:00,51.3,31.2,29.22,NNW,333,2.0,13.0,46,0.00,,,0.00,Wunderground v.1.15,2013-11-15 18:54:00,
2013-11-15 13:59:00,51.5,30.8,29.22,West,281,1.0,1.0,45,0.00,,,0.00,Wunderground v.1.15,2013-11-15 18:59:00,
2013-11-15 14:04:00,51.7,31.0,29.22,WNW,293,1.0,13.0,45,0.00,,,0.00,Wunderground v.1.15,2013-11-15 19:04:00,
2013-11-15 14:09:00,51.9,31.7,29.22,NW,305,1.0,1.0,46,0.00,,,0.00,Wunderground v.1.15,2013-11-15 19:09:00,
2013-11-15 14:14:00,52.1,30.8,29.22,WNW,298,1.0,3.0,44,0.00,,,0.00,Wunderground v.1.15,2013-11-15 19:14:00,
2013-11-15 14:24:00,52.3,31.0,29.23,West,281,1.0,13.0,44,0.00,,,0.00,Wunderground v.1.15,2013-11-15 19:24:00,
2013-11-15 14:29:00,52.3,31.0,29.23,NNW,346,1.0,13.0,44,0.00,,,0.00,Wunderground v.1.15,2013-11-15 19:29:00,
2013-11-15 14:34:00,52.4,31.1,29.23,WNW,303,1.0,13.0,44,0.00,,,0.00,Wunderground v.1.15,2013-11-15 19:34:00,
2013-11-15 14:39:00,52.4,31.1,29.22,NW,316,1.0,1.0,44,0.00,,,0.00,Wunderground v.1.15,2013-11-15 19:39:00,
2013-11-15 14:44:00,52.3,31.0,29.22,NW,316,1.0,13.0,44,0.00,,,0.00,Wunderground v.1.15,2013-11-15 19:44:00,
2013-11-15 14:49:00,52.3,31.6,29.22,NNW,332,0.0,13.0,45,0.00,,,0.00,Wunderground v.1.15,2013-11-15 19:49:00,
2013-11-15 14:55:00,52.3,31.6,29.22,WNW,293,0.0,13.0,45,0.00,,,0.00,Wunderground v.1.15,2013-11-15 19:55:00,
2013-11-15 15:00:00,52.3,31.6,29.22,WNW,298,0.0,13.0,45,0.00,,,0.00,Wunderground v.1.15,2013-11-15 20:00:00,
2013-11-15 15:05:00,52.3,31.0,29.22,WNW,298,1.0,13.0,44,0.00,,,0.00,Wunderground v.1.15,2013-11-15 20:05:00,
2013-11-15 15:10:00,51.9,31.2,29.22,WNW,300,2.0,13.0,45,0.00,,,0.00,Wunderground v.1.15,2013-11-15 20:10:00,
2013-11-15 15:15:00,51.7,31.0,29.22,WNW,290,2.0,13.0,45,0.00,,,0.00,Wunderground v.1.15,2013-11-15 20:15:00,
2013-11-15 15:20:00,51.5,31.4,29.22,WNW,303,1.0,1.0,46,0.00,,,0.00,Wunderground v.1.15,2013-11-15 20:20:00,
2013-11-15 15:30:00,51.1,31.6,29.22,NW,320,0.0,13.0,47,0.00,,,0.00,Wunderground v.1.15,2013-11-15 20:30:00,
2013-11-15 15:35:00,50.9,31.4,29.23,NW,312,0.0,13.0,47,0.00,,,0.00,Wunderground v.1.15,2013-11-15 20:35:00,
2013-11-15 15:40:00,50.7,31.7,29.23,WNW,290,0.0,13.0,48,0.00,,,0.00,Wunderground v.1.15,2013-11-15 20:40:00,
2013-11-15 15:45:00,50.4,31.4,29.22,WNW,290,1.0,13.0,48,0.00,,,0.00,Wunderground v.1.15,2013-11-15 20:45:00,
2013-11-15 15:50:00,50.1,31.7,29.22,WNW,293,1.0,13.0,49,0.00,,,0.00,Wunderground v.1.15,2013-11-15 20:50:00,
2013-11-15 16:00:00,49.8,31.9,29.22,WNW,292,2.0,13.0,50,0.00,,,0.00,Wunderground v.1.15,2013-11-15 21:00:00,
2013-11-15 16:05:00,49.6,32.2,29.23,West,277,2.0,13.0,51,0.00,,,0.00,Wunderground v.1.15,2013-11-15 21:05:00,
2013-11-15 16:10:00,49.4,32.0,29.23,WNW,288,2.0,2.0,51,0.00,,,0.00,Wunderground v.1.15,2013-11-15 21:10:00,
2013-11-15 16:15:00,49.3,32.4,29.23,WNW,295,2.0,13.0,52,0.00,,,0.00,Wunderground v.1.15,2013-11-15 21:15:00,
2013-11-15 16:20:00,49.1,32.7,29.23,WNW,298,1.0,1.0,53,0.00,,,0.00,Wunderground v.1.15,2013-11-15 21:20:00,
2013-11-15 16:25:00,48.9,32.5,29.23,WNW,292,1.0,2.0,53,0.00,,,0.00,Wunderground v.1.15,2013-11-15 21:25:00,
2013-11-15 16:34:00,48.7,32.8,29.23,WNW,294,1.0,2.0,54,0.00,,,0.00,Wunderground v.1.15,2013-11-15 21:34:00,
2013-11-15 16:39:00,48.5,33.1,29.23,NW,306,1.0,1.0,55,0.00,,,0.00,Wunderground v.1.15,2013-11-15 21:39:00,
2013-11-15 16:44:00,48.4,33.0,29.23,WNW,297,1.0,13.0,55,0.00,,,0.00,Wunderground v.1.15,2013-11-15 21:44:00,
2013-11-15 16:49:00,48.3,33.3,29.23,WNW,290,1.0,13.0,56,0.00,,,0.00,Wunderground v.1.15,2013-11-15 21:49:00,
2013-11-15 16:54:00,48.2,32.8,29.23,NNW,332,1.0,13.0,55,0.00,,,0.00,Wunderground v.1.15,2013-11-15 21:54:00,
2013-11-15 17:04:00,48.0,33.0,29.23,WNW,302,2.0,13.0,56,0.00,,,0.00,Wunderground v.1.15,2013-11-15 22:04:00,
2013-11-15 17:09:00,47.9,32.9,29.24,NW,319,1.0,1.0,56,0.00,,,0.00,Wunderground v.1.15,2013-11-15 22:09:00,
2013-11-15 17:14:00,47.8,33.3,29.24,WNW,302,1.0,2.0,57,0.00,,,0.00,Wunderground v.1.15,2013-11-15 22:14:00,
2013-11-15 17:19:00,47.7,33.2,29.24,West,271,0.0,13.0,57,0.00,,,0.00,Wunderground v.1.15,2013-11-15 22:19:00,
2013-11-15 17:24:00,47.6,33.5,29.24,WNW,292,0.0,13.0,58,0.00,,,0.00,Wunderground v.1.15,2013-11-15 22:24:00,
2013-11-15 17:29:00,47.6,33.5,29.24,NW,304,1.0,1.0,58,0.00,,,0.00,Wunderground v.1.15,2013-11-15 22:29:00,
2013-11-15 17:39:00,47.5,33.9,29.24,WNW,293,0.0,13.0,59,0.00,,,0.00,Wunderground v.1.15,2013-11-15 22:39:00,
2013-11-15 17:44:00,47.4,33.8,29.24,WNW,293,1.0,13.0,59,0.00,,,0.00,Wunderground v.1.15,2013-11-15 22:44:00,
2013-11-15 17:49:00,47.3,34.1,29.24,WNW,286,1.0,13.0,60,0.00,,,0.00,Wunderground v.1.15,2013-11-15 22:49:00,
2013-11-15 17:54:00,47.2,34.0,29.24,WNW,300,1.0,13.0,60,0.00,,,0.00,Wunderground v.1.15,2013-11-15 22:54:00,
2013-11-15 17:59:00,47.1,34.3,29.24,WNW,291,1.0,1.0,61,0.00,,,0.00,Wunderground v.1.15,2013-11-15 22:59:00,
2013-11-15 18:05:00,47.0,34.2,29.24,WNW,296,1.0,2.0,61,0.00,,,0.00,Wunderground v.1.15,2013-11-15 23:05:00,
2013-11-15 18:10:00,46.9,34.6,29.24,West,281,2.0,2.0,62,0.00,,,0.00,Wunderground v.1.15,2013-11-15 23:10:00,
2013-11-15 18:15:00,46.9,34.6,29.24,NNW,327,1.0,13.0,62,0.00,,,0.00,Wunderground v.1.15,2013-11-15 23:15:00,
2013-11-15 18:20:00,46.8,34.9,29.24,WNW,301,1.0,13.0,63,0.00,,,0.00,Wunderground v.1.15,2013-11-15 23:20:00,
2013-11-15 18:25:00,46.8,34.9,29.24,WNW,302,1.0,13.0,63,0.00,,,0.00,Wunderground v.1.15,2013-11-15 23:25:00,
2013-11-15 18:30:00,46.7,34.8,29.24,WNW,295,1.0,1.0,63,0.00,,,0.00,Wunderground v.1.15,2013-11-15 23:30:00,
2013-11-15 18:40:00,46.5,34.6,29.24,WNW,297,1.0,13.0,63,0.00,,,0.00,Wunderground v.1.15,2013-11-15 23:40:00,
2013-11-15 18:45:00,46.5,34.6,29.24,WNW,295,1.0,13.0,63,0.00,,,0.00,Wunderground v.1.15,2013-11-15 23:45:00,
2013-11-15 18:50:00,46.5,34.6,29.24,WNW,289,1.0,13.0,63,0.00,,,0.00,Wunderground v.1.15,2013-11-15 23:50:00,
2013-11-15 18:55:00,46.4,34.1,29.24,NW,305,1.0,13.0,62,0.00,,,0.00,Wunderground v.1.15,2013-11-15 23:55:00,
2013-11-15 19:00:00,46.4,34.5,29.24,WNW,288,1.0,1.0,63,0.00,,,0.00,Wunderground v.1.15,2013-11-16 00:00:00,
2013-11-15 19:05:00,46.3,34.4,29.24,NW,305,0.0,13.0,63,0.00,,,0.00,Wunderground v.1.15,2013-11-16 00:05:00,
2013-11-15 19:15:00,46.1,34.2,29.24,NW,311,0.0,13.0,63,0.00,,,0.00,Wunderground v.1.15,2013-11-16 00:15:00,
2013-11-15 19:20:00,46.1,34.2,29.24,NW,311,0.0,13.0,63,0.00,,,0.00,Wunderground v.1.15,2013-11-16 00:20:00,
2013-11-15 19:25:00,46.1,34.2,29.24,NW,309,0.0,13.0,63,0.00,,,0.00,Wunderground v.1.15,2013-11-16 00:25:00,
2013-11-15 19:30:00,46.0,34.1,29.25,NW,309,0.0,13.0,63,0.00,,,0.00,Wunderground v.1.15,2013-11-16 00:30:00,
2013-11-15 19:35:00,46.0,34.5,29.25,NW,309,0.0,13.0,64,0.00,,,0.00,Wunderground v.1.15,2013-11-16 00:35:00,
2013-11-15 19:44:00,45.9,34.4,29.25,WNW,296,0.0,13.0,64,0.00,,,0.00,Wunderground v.1.15,2013-11-16 00:44:00,
2013-11-15 19:49:00,45.9,34.4,29.25,WNW,303,0.0,13.0,64,0.00,,,0.00,Wunderground v.1.15,2013-11-16 00:49:00,
2013-11-15 19:54:00,45.8,34.3,29.26,WNW,303,0.0,13.0,64,0.00,,,0.00,Wunderground v.1.15,2013-11-16 00:54:00,
2013-11-15 19:59:00,45.7,34.2,29.26,WNW,303,0.0,13.0,64,0.00,,,0.00,Wunderground v.1.15,2013-11-16 00:59:00,
2013-11-15 20:04:00,45.6,34.5,29.26,WNW,303,0.0,13.0,65,0.00,,,0.00,Wunderground v.1.15,2013-11-16 01:04:00,
2013-11-15 20:09:00,45.5,34.4,29.26,WNW,303,0.0,13.0,65,0.00,,,0.00,Wunderground v.1.15,2013-11-16 01:09:00,
2013-11-15 20:19:00,45.4,34.7,29.26,WNW,303,0.0,13.0,66,0.00,,,0.00,Wunderground v.1.15,2013-11-16 01:19:00,
2013-11-15 20:24:00,45.3,34.6,29.26,WNW,303,0.0,13.0,66,0.00,,,0.00,Wunderground v.1.15,2013-11-16 01:24:00,
2013-11-15 20:29:00,45.4,34.7,29.26,WNW,302,0.0,13.0,66,0.00,,,0.00,Wunderground v.1.15,2013-11-16 01:29:00,
2013-11-15 20:34:00,45.6,34.9,29.26,WNW,302,0.0,13.0,66,0.00,,,0.00,Wunderground v.1.15,2013-11-16 01:34:00,
2013-11-15 20:39:00,45.6,34.9,29.27,WNW,302,0.0,13.0,66,0.00,,,0.00,Wunderground v.1.15,2013-11-16 01:39:00,
2013-11-15 20:49:00,45.8,34.7,29.27,WNW,302,0.0,13.0,65,0.00,,,0.00,Wunderground v.1.15,2013-11-16 01:49:00,
2013-11-15 20:54:00,45.8,34.7,29.27,WNW,302,0.0,13.0,65,0.00,,,0.00,Wunderground v.1.15,2013-11-16 01:54:00,
2013-11-15 20:59:00,45.7,34.2,29.27,WNW,302,0.0,13.0,64,0.00,,,0.00,Wunderground v.1.15,2013-11-16 01:59:00,
2013-11-15 21:04:00,45.3,34.2,29.27,WNW,292,0.0,13.0,65,0.00,,,0.00,Wunderground v.1.15,2013-11-16 02:04:00,
2013-11-15 21:09:00,45.1,34.0,29.27,WNW,290,1.0,13.0,65,0.00,,,0.00,Wunderground v.1.15,2013-11-16 02:09:00,
2013-11-15 21:14:00,44.9,34.2,29.27,WNW,290,1.0,13.0,66,0.00,,,0.00,Wunderground v.1.15,2013-11-16 02:14:00,
2013-11-15 21:24:00,45.0,33.9,29.27,West,261,2.0,13.0,65,0.00,,,0.00,Wunderground v.1.15,2013-11-16 02:24:00,
2013-11-15 21:29:00,45.2,34.1,29.27,West,262,3.0,3.0,65,0.00,,,0.00,Wunderground v.1.15,2013-11-16 02:29:00,
2013-11-15 21:34:00,45.2,34.1,29.27,West,262,2.0,13.0,65,0.00,,,0.00,Wunderground v.1.15,2013-11-16 02:34:00,
2013-11-15 21:39:00,45.1,33.6,29.27,West,262,1.0,13.0,64,0.00,,,0.00,Wunderground v.1.15,2013-11-16 02:39:00,
2013-11-15 21:44:00,45.2,33.7,29.27,West,259,2.0,13.0,64,0.00,,,0.00,Wunderground v.1.15,2013-11-16 02:44:00,
2013-11-15 21:50:00,45.4,33.5,29.27,WSW,252,3.0,13.0,63,0.00,,,0.00,Wunderground v.1.15,2013-11-16 02:50:00,
2013-11-15 21:55:00,45.3,33.0,29.26,WSW,252,5.0,13.0,62,0.00,,,0.00,Wunderground v.1.15,2013-11-16 02:55:00,
2013-11-15 22:00:00,45.5,32.8,29.27,WSW,244,5.0,5.0,61,0.00,,,0.00,Wunderground v.1.15,2013-11-16 03:00:00,
2013-11-15 22:05:00,45.8,33.1,29.27,West,262,4.0,13.0,61,0.00,,,0.00,Wunderground v.1.15,2013-11-16 03:05:00,
2013-11-15 22:10:00,46.0,33.3,29.27,West,262,1.0,1.0,61,0.00,,,0.00,Wunderground v.1.15,2013-11-16 03:10:00,
2013-11-15 22:15:00,46.0,32.9,29.28,West,265,0.0,13.0,60,0.00,,,0.00,Wunderground v.1.15,2013-11-16 03:15:00,
2013-11-15 22:25:00,46.0,32.5,29.27,WNW,284,0.0,13.0,59,0.00,,,0.00,Wunderground v.1.15,2013-11-16 03:25:00,
2013-11-15 22:30:00,46.1,32.1,29.27,WNW,286,1.0,1.0,58,0.00,,,0.00,Wunderground v.1.15,2013-11-16 03:30:00,
2013-11-15 22:35:00,46.2,32.2,29.27,WNW,288,1.0,13.0,58,0.00,,,0.00,Wunderground v.1.15,2013-11-16 03:35:00,
2013-11-15 22:40:00,46.3,31.9,29.27,NW,304,0.0,13.0,57,0.00,,,0.00,Wunderground v.1.15,2013-11-16 03:40:00,
2013-11-15 22:45:00,46.4,31.5,29.27,WNW,294,1.0,13.0,56,0.00,,,0.00,Wunderground v.1.15,2013-11-16 03:45:00,
2013-11-15 22:50:00,46.7,31.4,29.26,WNW,294,1.0,1.0,55,0.00,,,0.00,Wunderground v.1.15,2013-11-16 03:50:00,
2013-11-15 22:59:00,46.9,31.6,29.27,WNW,299,0.0,13.0,55,0.00,,,0.00,Wunderground v.1.15,2013-11-16 03:59:00,
2013-11-15 23:04:00,47.0,31.2,29.27,WNW,299,0.0,13.0,54,0.00,,,0.00,Wunderground v.1.15,2013-11-16 04:04:00,
2013-11-15 23:10:00,46.9,30.6,29.27,WNW,298,0.0,13.0,53,0.00,,,0.00,Wunderground v.1.15,2013-11-16 04:10:00,
2013-11-15 23:15:00,47.0,31.2,29.27,West,272,2.0,13.0,54,0.00,,,0.00,Wunderground v.1.15,2013-11-16 04:15:00,
2013-11-15 23:20:00,47.0,30.7,29.28,West,272,1.0,1.0,53,0.00,,,0.00,Wunderground v.1.15,2013-11-16 04:20:00,
2013-11-15 23:29:00,47.0,30.7,29.28,West,273,0.0,13.0,53,0.00,,,0.00,Wunderground v.1.15,2013-11-16 04:29:00,
2013-11-15 23:34:00,47.0,31.2,29.28,West,274,0.0,13.0,54,0.00,,,0.00,Wunderground v.1.15,2013-11-16 04:34:00,
2013-11-15 23:39:00,47.0,30.7,29.28,West,278,1.0,13.0,53,0.00,,,0.00,Wunderground v.1.15,2013-11-16 04:39:00,
2013-11-15 23:44:00,46.8,30.6,29.29,West,279,1.0,13.0,53,0.00,,,0.00,Wunderground v.1.15,2013-11-16 04:44:00,
2013-11-15 23:49:00,46.6,30.4,29.29,West,279,1.0,1.0,53,0.00,,,0.00,Wunderground v.1.15,2013-11-16 04:49:00,
2013-11-15 23:54:00,46.6,30.4,29.29,WNW,283,1.0,13.0,53,0.00,,,0.00,Wunderground v.1.15,2013-11-16 04:54:00,